Nellis AFB, NV

12:33 AM PST on December 09, 2019 (GMT -0800)
Nellis Air Force Base

Weather History for KLSV - October, 2019

Change the Weather History Date:

Monday, October 21, 2019

  Actual Average Record
Temperature  
Mean Temperature 62 °F -  
Max Temperature 79 °F 76 °F 96 °F (2003)
Min Temperature 47 °F 51 °F 44 °F (1999)
Degree Days  
Heating Degree Days 2    
Growing Degree Days 12 (Base 50)    
Moisture  
Dew Point 15 °F    
Average Humidity 16    
Maximum Humidity 20    
Minimum Humidity 11    
Precipitation  
Precipitation 0.00 in - - ()
Sea Level Pressure  
Sea Level Pressure 30.10 in    
Wind  
Wind Speed 2 mph (NNE)    
Max Wind Speed 8 mph    
Max Gust Speed -    
Visibility 10 miles    
Events      
Averages and records for this station are not official NWS values.
T = Trace of Precipitation, MM = Missing Value Source: NWS Daily Summary

Daily Weather History Graph

Daily Weather History Graph

Search for Another Location

Airport or City:

Astronomy

Oct. 21, 2019 Rise Set
Actual Time 6:52 AM PDT 5:56 PM PDT
Civil Twilight 6:26 AM PDT 6:22 PM PDT
Nautical Twilight 5:56 AM PDT 6:52 PM PDT
Astronomical Twilight 5:26 AM PDT 7:22 PM PDT
Moon No Moon Rise 2:07 PM PDT (10/21)
Length of Visible Light 11h 56m
Length of Day
11h 04m
Waning Gibbous, 47% of the Moon is Illuminated
Oct 21
Waning Gibbous
Oct 27
New
Nov 4
First Quarter
Nov 12
Full
Nov 19
Last Quarter

Hourly Weather History & Observations

Time (PDT) Temp. Dew Point Humidity Pressure Visibility Wind Dir Wind Speed Gust Speed Precip Events Conditions
12:55 AM 50.2 °F 6.6 °F 17% 30.03 in 10.0 mi East 2.3 mph - N/A   Clear
1:55 AM 51.4 °F 7.3 °F 17% 30.03 in 10.0 mi NNE 4.6 mph - N/A   Clear
2:55 AM 51.4 °F 8.4 °F 18% 30.03 in 10.0 mi North 1.2 mph - N/A   Clear
3:55 AM 47.7 °F 7.9 °F 20% 30.04 in 10.0 mi NE 3.5 mph - N/A   Clear
4:55 AM 50.9 °F 9.7 °F 19% 30.05 in 10.0 mi NNE 3.5 mph - N/A   Clear
5:55 AM 52.2 °F 8.4 °F 17% 30.06 in 10.0 mi Calm Calm - N/A   Clear
6:55 AM 53.1 °F 9.7 °F 18% 30.09 in 10.0 mi North 2.3 mph - N/A   Clear
7:58 AM 53.4 °F 9.0 °F 17% 30.12 in 10.0 mi North 1.2 mph - N/A   Clear
8:58 AM 59.7 °F 16.2 °F 18% 30.16 in 10.0 mi Calm Calm - N/A   Clear
9:58 AM 64.4 °F 15.8 °F 15% 30.17 in 10.0 mi Calm Calm - N/A   Clear
10:58 AM 68.0 °F 15.3 °F 13% 30.16 in 10.0 mi SSW 5.8 mph - N/A   Clear
11:58 AM 72.0 °F 16.5 °F 12% 30.15 in 10.0 mi Calm Calm - N/A   Clear
12:58 PM 74.3 °F 18.3 °F 12% 30.13 in 10.0 mi NNE 3.5 mph - N/A   Clear
1:58 PM 75.6 °F 19.4 °F 12% 30.09 in 10.0 mi Calm Calm - N/A   Clear
2:58 PM 77.9 °F 21.2 °F 12% 30.09 in 10.0 mi NE 5.8 mph - N/A   Clear
4:58 PM 78.6 °F 19.8 °F 11% 30.09 in 10.0 mi Calm Calm - N/A   Clear
5:58 PM 73.8 °F 23.2 °F 15% 30.09 in 10.0 mi South 8.1 mph - N/A   Clear
6:58 PM 71.4 °F 24.3 °F 17% 30.06 in 10.0 mi SSW 3.5 mph - N/A   Clear
7:58 PM 67.3 °F 21.0 °F 17% 30.11 in 10.0 mi North 3.5 mph - N/A   Clear
8:58 PM 63.7 °F 15.8 °F 16% 30.12 in 10.0 mi NE 2.3 mph - N/A   Clear
9:58 PM 64.4 °F 17.6 °F 16% 30.13 in 10.0 mi NE 1.2 mph - N/A   Clear
10:58 PM 60.8 °F 15.8 °F 17% 30.15 in 10.0 mi Variable 1.2 mph - N/A   Clear
11:58 PM 57.2 °F 14.0 °F 18% 30.15 in 10.0 mi NE 2.3 mph - N/A   Clear